Regional Weather Roundup
Issued by NWS

Home | Current Version | Previous Version | Graphics & Text | Print | Product List | Glossary Off
Versions: 1 2 3 4 5 6 7 8 9 10 11 12 13 14 15 16 17 18 19 20 21 22 23 24 25 26 27 28 29 30 31 32 33 34 35 36 37 38 39 40 41 42 43 44 45 46 47 48 49 50

000
ASUS43 KTOP 292259
RWRKS

WEATHER ROUNDUP FOR KANSAS
NATIONAL WEATHER SERVICE GOODLAND KS
500 PM CST THU JAN 29 2015

NOTE:  "FAIR" INDICATES FEW OR NO CLOUDS BELOW 12,000 FEET WITH NO
SIGNIFICANT WEATHER AND/OR OBSTRUCTIONS TO VISIBILITY.

KSZ001>006-013>018-027>032-041>047-300000-
NORTHWEST KANSAS

CITY           SKY/WX    TMP DP  RH WIND       PRES   REMARKS
GOODLAND       SUNNY     47  18  31 N8        30.47R
HAYS           CLEAR     46  21  36 N10       30.48S
HILL CITY      CLEAR     47  22  37 N8        30.48S
RUSSELL        CLEAR     47  25  42 N10       30.47R
$$

KSZ061>065-074>080-084>089-300000-
SOUTHWEST KANSAS

CITY           SKY/WX    TMP DP  RH WIND       PRES   REMARKS
DODGE CITY     CLEAR     47  21  35 N12       30.48R
ELKHART          N/A     50  25  38 N6          N/A
GARDEN CITY    SUNNY     47  19  33 N12       30.47R
LIBERAL        MOSUNNY   48  21  34 NE12      30.49R
$$

KSZ066>073-081>083-090>101-300000-
SOUTHEAST KANSAS

CITY           SKY/WX    TMP DP  RH WIND       PRES   REMARKS
CHANUTE        CLEAR     46  28  49 NW15G22   30.44R
COFFEYVILLE    CLEAR     48  29  47 NW17G25   30.44R
HUTCHINSON     CLEAR     49  25  39 N13       30.47R
MEDICINE LODGE   N/A     49  25  39 N10       30.47R
NEWTON         CLEAR     45  23  42 N14       30.48R
PARSONS        PTCLDY    48  30  49 N12       30.44R
WICHITA INTL   PTCLDY    49  25  39 N16       30.46R
WICHITA JABRA  CLEAR     47  25  42 N17       30.46R
WINFIELD       CLEAR     48  26  42 N15       30.47R
$$

KSZ007>012-019>026-033>040-048>060-102>105-300000-
NORTHEAST KANSAS

CITY           SKY/WX    TMP DP  RH WIND       PRES   REMARKS
CONCORDIA      CLEAR     45  25  45 N13       30.46R
EMPORIA        CLEAR     43  27  53 N12       30.45R
LAWRENCE       PTCLDY    41  25  53 N14       30.45R
MANHATTAN      CLEAR     45  27  49 N12       30.46S
OLATHE IND     CLEAR     40  26  57 N16       30.43R WCI  31
OLATHE EXE     PTCLDY    41  25  53 N15       30.42R
SALINA         CLEAR     48  25  40 N13       30.47S
TOPEKA BILLARD MOCLDY    43  26  51 NW12      30.46R
TOPEKA FORBES  CLEAR     44  26  49 N17       30.45R
$$


USA.gov is the U.S. government's official web portal to all federal, state and local government web resources and services.